#timestamp,LO_Frequency,Hit,StdDev 
1576072815.4,286047002.0,N
1576072835.3,286047000.1,N
1576072855.1,286047000.4,N
1576072856.0,286047000.4,N
1576072875.8,286047001.6,N
1576072895.7,286047000.4,N
1576072915.5,286047000.4,N
1576072935.3,286046998.2,N
1576072955.2,286046998.5,N
1576072975.0,286047000.2,N
1576072975.9,286047000.2,N
1576072995.8,286047000.0,N
1576073015.6,286047000.3,N
1576073035.4,286047000.1,N
1576073055.3,286047000.8,N
1576073075.1,286046998.3,N
1576073095.8,286046998.7,N
1576073115.7,286047001.1,N
1576073135.5,286046998.9,N
1576073155.4,286046998.7,N
1576073175.2,286047000.8,N
1576073195.0,286046998.4,N
1576073195.9,286046998.4,N
1576073215.8,286046998.8,N
1576073235.6,286046998.8,N
1576073255.4,286046999.4,N
1576073275.3,286046997.2,N
1576073295.1,286046997.5,N
1576073315.9,286046997.0,N
1576073335.7,286046997.8,N
1576073355.5,286046996.9,N
1576073375.4,286046998.2,N
1576073395.2,286046996.5,N
1576073415.1,286046999.4,N
1576073416.0,286046999.4,N
1576073435.8,286046999.0,N
1576073455.6,286046998.3,N
1576073475.5,286047000.9,N
1576073495.3,286046998.3,N
1576073515.1,286046999.1,N
1576073535.9,286046999.3,N
1576073555.7,286046997.4,N
1576073575.6,286046999.3,N
1576073595.4,286046997.0,N
1576073615.2,286046999.2,N
1576073635.1,286046997.3,N
1576073636.0,286046997.3,N
1576073655.8,286046997.1,N
1576073675.7,286046996.9,N
1576073695.5,286047000.8,N
1576073715.3,286046998.5,N
1576073735.2,286046999.1,N
1576073755.0,286046998.4,N
1576073755.9,286046998.4,N
1576073775.7,286046999.3,N
1576073795.6,286046996.8,N
1576073815.4,286046996.6,N
1576073835.3,286046997.4,N
1576073855.1,286046995.6,Y
1576073856.0,286046995.6,P
1576073875.8,286046997.2,N
1576073895.7,286046997.4,N
1576073915.5,286046998.9,N
1576073935.3,286046999.4,N
1576073955.2,286046999.3,N
1576073975.0,286047000.9,N
1576073975.9,286047000.9,N
1576073995.8,286047002.0,N
1576074015.6,286047000.0,N
1576074035.4,286047002.5,N
1576074055.3,286047000.6,N
1576074075.1,286047002.5,N
1576074095.8,286047002.6,N
1576074115.7,286046998.6,N
1576074135.5,286047000.6,N
1576074155.4,286047000.6,N
1576074175.2,286046999.9,N
1576074195.0,286047000.8,N
1576074195.9,286047000.8,N
1576074215.8,286046998.2,N
1576074235.6,286046998.4,N
1576074255.4,286046999.9,N
1576074275.3,286047000.9,N
1576074295.1,286047000.9,N
1576074345.9,286046998.9,E
1576074355.8,286046999.0,N
1576074375.7,286046998.1,P
1576074395.5,286046998.5,P
1576074415.3,286047000.7,N
1576074435.2,286046999.7,N
1576074455.9,286047001.5,N
1576074475.7,286047001.5,N
1576074495.6,286047004.2,Y
1576074515.4,286047001.9,P
1576074535.3,286047002.5,N
1576074555.1,286047000.5,N
1576074556.0,286047000.5,N
1576074575.8,286047000.8,N
1576074595.7,286047000.9,N
1576074615.5,286047000.0,N
1576074635.3,286047000.9,N
1576074655.2,286047001.0,N
1576074675.0,286046998.2,N
1576074706.0,286047002.7,E
1576074715.9,286047001.2,N
1576074735.7,286046995.0,P
1576074755.5,286046998.0,N
1576074775.4,286046997.2,N
1576074795.2,286046997.1,N
1576074815.1,286046996.3,N
1576074816.0,286046996.3,N
1576074835.8,286046994.3,Y
1576074855.6,286046995.8,P
1576074875.5,286046997.4,P
1576074895.3,286046997.6,P
1576074915.2,286046995.6,Y
1576074935.9,286046999.3,P
1576074955.7,286047000.9,N
1576074975.6,286046998.5,N
1576074995.4,286047001.1,N
1576075015.2,286047000.0,N
1576075035.1,286047002.8,N
1576075036.0,286047002.8,N
1576075055.8,286047001.5,N
1576075075.7,286047001.9,N
1576075095.5,286047001.9,N
1576075115.3,286047004.0,N
1576075135.2,286047002.1,N
1576075155.0,286047000.1,N
1576075155.9,286047000.1,N
1576075175.8,286047000.1,N
1576075195.6,286047002.0,N
1576075215.4,286047000.2,N
1576075235.3,286047001.8,N
1576075255.1,286047003.9,N
1576075275.9,286047003.8,N
1576075295.7,286047002.9,N
1576075315.5,286047005.6,Y
1576075335.4,286047001.3,P
1576075355.2,286047002.0,P
1576075375.0,286047004.2,P
1576075376.0,286047004.2,Y
1576075395.8,286047000.4,P
1576075415.6,286047000.3,N
1576075435.5,286046998.4,N
1576075455.3,286046998.5,N
1576075475.1,286046996.9,N
1576075495.9,286046999.5,N
1576075515.7,286046999.1,N
1576075535.6,286046999.4,N
1576075555.4,286046999.2,N
1576075575.2,286046999.3,N
1576075595.1,286046997.6,N
1576075596.0,286046997.6,N
1576075615.8,286046997.6,N
1576075665.7,286046995.0,E
1576075675.6,286046999.2,N
1576075695.4,286047004.2,P
1576075715.3,286047003.9,N
1576075735.1,286047002.7,N
1576075755.9,286047003.8,N
1576075775.7,286047001.8,N
1576075795.5,286047000.5,N
1576075815.4,286047002.3,N
1576075835.2,286047002.7,N
1576075855.0,286047002.3,N
1576075855.9,286047002.3,N
1576075875.8,286047002.1,N
1576075895.6,286047001.9,N
1576075915.4,286047002.5,N
1576075935.3,286047000.5,N
1576075955.1,286046999.4,N
1576075975.9,286046997.2,N
1576075995.7,286046998.6,N
1576076015.5,286047001.0,N
1576076035.4,286046998.5,N
1576076055.2,286047002.8,N
1576076075.0,286047002.1,N
1576076076.0,286047002.1,N
1576076095.8,286047002.2,N
1576076115.6,286047003.9,N
1576076135.5,286047002.5,N
1576076155.3,286047001.0,N
1576076175.1,286046998.3,N
1576076195.9,286046999.2,N
1576076215.7,286046998.4,N
1576076235.5,286047001.2,N
1576076255.4,286046998.2,N
1576076275.2,286047000.7,N
1576076295.1,286047002.4,N
1576076296.0,286047002.4,N
1576076315.8,286047002.5,N
1576076335.6,286047000.0,N
1576076355.5,286046999.8,N
1576076375.3,286046998.6,N
1576076395.1,286047000.6,N
